| time (UTC) | temp C | wind direction | speed KPH | gust KPH | rain 1hr cm | rain 24hr cm | rain mn cm | humidity % | barometer mb |
| 20260504045105 | 0 | 330 | 0.0 | 0.0 | 0.00 | 0.03 | 0.00 | 87 | 1008.0 |
| 20260504043605 | 0 | 330 | 0.0 | 0.0 | 0.00 | 0.03 | 0.00 | 88 | 1008.1 |
| 20260504042105 | 0 | 330 | 0.0 | 0.0 | 0.00 | 0.03 | 0.00 | 88 | 1008.2 |
| 20260504040607 | 0 | 330 | 0.0 | 0.0 | 0.00 | 0.03 | 0.00 | 88 | 1008.1 |
| 20260504035105 | 0 | 330 | 0.0 | 0.0 | 0.00 | 0.03 | 0.03 | 87 | 1008.0 |
| 20260504034336 | 0 | 330 | 0.0 | 0.0 | 0.00 | 0.03 | 0.03 | 86 | 1008.0 |
| 20260504032103 | 0 | 330 | 0.0 | 0.0 | 0.00 | 0.03 | 0.03 | 85 | 1008.0 |
| 20260504030602 | 0 | 330 | 0.0 | 0.0 | 0.00 | 0.03 | 0.03 | 85 | 1008.1 |
| 20260504025103 | 0 | 330 | 0.0 | 0.0 | 0.00 | 0.03 | 0.03 | 84 | 1008.1 |
| 20260504023604 | 0 | 330 | 0.0 | 0.0 | 0.00 | 0.03 | 0.03 | 83 | 1008.1 |
| 20260504022102 | 0 | 330 | 0.0 | 0.0 | 0.00 | 0.03 | 0.03 | 83 | 1008.1 |
| 20260504020602 | 1 | 330 | 0.0 | 0.0 | 0.00 | 0.03 | 0.03 | 81 | 1008.0 |
| 20260504015834 | 1 | 330 | 0.0 | 0.0 | 0.00 | 0.03 | 0.03 | 80 | 1008.0 |
| 20260504013601 | 1 | 330 | 0.0 | 0.0 | 0.00 | 0.03 | 0.03 | 79 | 1007.9 |
| 20260504012830 | 2 | 330 | 0.0 | 0.0 | 0.00 | 0.03 | 0.03 | 78 | 1007.8 |
| 20260504010558 | 2 | 330 | 0.0 | 0.0 | 0.00 | 0.03 | 0.03 | 75 | 1007.7 |
| 20260504005058 | 3 | 330 | 0.0 | 0.0 | 0.00 | 0.03 | 0.03 | 74 | 1007.4 |
| 20260504003556 | 4 | 330 | 0.0 | 0.0 | 0.00 | 0.03 | 0.03 | 71 | 1007.3 |
| 20260504002052 | 5 | 330 | 0.0 | 0.0 | 0.00 | 0.03 | 0.03 | 69 | 1007.2 |
| 20260504000552 | 5 | 330 | 0.0 | 0.0 | 0.00 | 0.03 | 0.03 | 65 | 1007.0 |
| 20260503235052 | 6 | 330 | 0.0 | 0.0 | 0.00 | 0.03 | 0.03 | 63 | 1006.8 |
| 20260503233554 | 7 | 330 | 0.0 | 6.4 | 0.00 | 0.03 | 0.03 | 61 | 1006.8 |
| 20260503232046 | 7 | 319 | 3.2 | 6.4 | 0.00 | 0.03 | 0.03 | 56 | 1006.7 |
| 20260503231317 | 8 | 5 | 1.6 | 8.0 | 0.00 | 0.03 | 0.03 | 54 | 1006.6 |
| 20260503225042 | 8 | 331 | 1.6 | 12.9 | 0.00 | 0.03 | 0.03 | 50 | 1006.7 |
| 20260503223541 | 9 | 305 | 3.2 | 12.9 | 0.00 | 0.03 | 0.03 | 46 | 1006.5 |
| 20260503222034 | 9 | 14 | 4.8 | 12.9 | 0.00 | 0.03 | 0.03 | 46 | 1006.5 |
| 20260503220536 | 9 | 203 | 3.2 | 19.3 | 0.00 | 0.03 | 0.03 | 46 | 1006.4 |
| 20260503215800 | 9 | 180 | 4.8 | 19.3 | 0.00 | 0.03 | 0.03 | 46 | 1006.3 |
| 20260503213529 | 9 | 331 | 4.8 | 19.3 | 0.00 | 0.03 | 0.03 | 46 | 1006.4 |
| 20260503212023 | 9 | 283 | 6.4 | 20.9 | 0.00 | 0.03 | 0.03 | 46 | 1006.5 |
| 20260503210523 | 9 | 338 | 6.4 | 22.5 | 0.00 | 0.03 | 0.03 | 48 | 1006.4 |
| 20260503205019 | 8 | 15 | 6.4 | 14.5 | 0.00 | 0.03 | 0.03 | 48 | 1006.2 |
| 20260503203520 | 8 | 325 | 3.2 | 12.9 | 0.00 | 0.03 | 0.03 | 50 | 1006.3 |
| 20260503202020 | 8 | 0 | 3.2 | 19.3 | 0.00 | 0.03 | 0.03 | 49 | 1006.3 |
| 20260503200519 | 8 | 310 | 4.8 | 17.7 | 0.00 | 0.03 | 0.03 | 49 | 1006.3 |
| 20260503195018 | 9 | 355 | 6.4 | 19.3 | 0.00 | 0.03 | 0.03 | 45 | 1006.5 |
| 20260503193518 | 8 | 5 | 6.4 | 17.7 | 0.00 | 0.03 | 0.03 | 49 | 1006.5 |
| 20260503192020 | 8 | 259 | 6.4 | 19.3 | 0.00 | 0.03 | 0.03 | 47 | 1006.4 |
| 20260503190515 | 8 | 5 | 6.4 | 25.7 | 0.00 | 0.03 | 0.03 | 45 | 1006.4 |
| 20260503185016 | 8 | 23 | 6.4 | 22.5 | 0.00 | 0.03 | 0.03 | 44 | 1006.4 |
| 20260503183517 | 9 | 301 | 6.4 | 19.3 | 0.00 | 0.03 | 0.03 | 44 | 1006.4 |
| 20260503182747 | 9 | 336 | 8.0 | 22.5 | 0.00 | 0.03 | 0.03 | 45 | 1006.5 |
| 20260503180517 | 10 | 333 | 9.7 | 22.5 | 0.00 | 0.03 | 0.03 | 45 | 1006.2 |
| 20260503175022 | 10 | 5 | 6.4 | 24.1 | 0.00 | 0.03 | 0.03 | 40 | 1005.9 |
| 20260503175016 | 9 | 47 | 6.4 | 19.3 | 0.00 | 0.03 | 0.03 | 45 | 1006.2 |
| 20260503173515 | 9 | 271 | 8.0 | 22.5 | 0.00 | 0.03 | 0.03 | 45 | 1006.1 |
| 20260503170515 | 10 | 5 | 4.8 | 24.1 | 0.00 | 0.03 | 0.03 | 42 | 1006.0 |
| 20260503150454 | 8 | 350 | 4.8 | 16.1 | 0.00 | 0.03 | 0.03 | 50 | 1007.1 |
| 20260503110422 | 3 | 22 | 3.2 | 11.3 | 0.00 | 0.10 | 0.03 | 83 | 1007.8 |
| 20260503090406 | 2 | 21 | 1.6 | 8.0 | 0.03 | 0.18 | 0.03 | 91 | 1008.0 |
| 20260503080404 | 1 | 355 | 0.0 | 0.0 | 0.00 | 0.20 | 0.00 | 95 | 1008.4 |
| 20260503071133 | 1 | 5 | 0.0 | 0.0 | 0.00 | 0.28 | 0.00 | 95 | 1008.6 |
| 20260503053352 | 0 | 5 | 0.0 | 0.0 | 0.00 | 0.30 | 0.00 | 93 | 1009.6 |
| 20260503051853 | 0 | 5 | 0.0 | 0.0 | 0.00 | 0.30 | 0.00 | 92 | 1009.6 |
| 20260503050350 | 0 | 5 | 0.0 | 0.0 | 0.00 | 0.30 | 0.00 | 91 | 1009.7 |